sat.trackr.live / text

‹ back to catalog

GONETS-M 11

NORAD 40552 · 2015-020A

PAYLOAD ACTIVE UNKNOWN

§ Identity

Operator
Country
CIS
Launch date
2015-03-31
Launch site
PLMSC
Launch vehicle
Mass (kg)
RCS (m²)
1.64

External: N2YO · Heavens-Above · Gunter

§ Orbital elements

Epoch: 2026-09-04T05:13:52.154400Z

Period
115.86 min
Inclination
82.4917°
Eccentricity
0.0016388
Mean motion
12.42881219 rev/d
Perigee alt
1,481.5 km
Apogee alt
1,507.3 km
Semi-major
7,872.5 km
B*
8.3480e-4
RAAN
341.7523°
Arg perigee
186.2653°
Mean anomaly
173.8224°
Rev number
51,855

§ Raw data

GONETS-M 111 40552U 15020A   26247.21796475  .00000126  00000+0  83480-3 0  99902 40552  82.4917 341.7523 0016388 186.2653 173.8224 12.42881219518550

JSON: /api/v1/satellites/40552 · /tle

For live sub-satellite position, see the globe view (requires WebGL).

§ Visibility from observer

Set your observer location to see the next 7 days of passes ≥ 10°. The values pass through the URL so the page stays shareable.

No JS? Fill the form by hand. The geolocation button needs JavaScript.

§ Radio — SatNOGS DB

ModeDescriptionDownlinkUplink
FM Telemetry 264.981 MHz
FM UHF Unknown 387.062 MHz
FM UHF Unknown 387.625 MHz
FM UHF Unknown 387.837 MHz

4 transmitters · refreshed weekly from db.satnogs.org